Tiempo cada hora Dakoutun

Hoy, 14 Mayo, Viernes

Tiempo Temperatura Precipitaciones Viento Presión Humedad
00:00 +17°C° 0 mm 3 mps 756 mmHg 79%
01:00 +17°C° 0 mm 3 mps 755 mmHg 81%
02:00 +16°C° 0 mm 3 mps 755 mmHg 82%
03:00 +16°C° 0 mm 3 mps 755 mmHg 83%
04:00 +16°C° 0 mm 3 mps 755 mmHg 84%
05:00 +14°C° 0 mm 3 mps 755 mmHg 85%
06:00 +17°C° 0 mm 3 mps 755 mmHg 77%
07:00 +20°C° 0 mm 3 mps 755 mmHg 69%
08:00 +22°C° 0 mm 4 mps 755 mmHg 61%
09:00 +25°C° 0 mm 4 mps 754 mmHg 55%
10:00 +27°C° 0 mm 4 mps 754 mmHg 49%
11:00 +30°C° 0 mm 4 mps 753 mmHg 42%
12:00 +30°C° 0 mm 5 mps 753 mmHg 42%
13:00 +30°C° 0 mm 5 mps 752 mmHg 41%
14:00 +32°C° 0 mm 6 mps 752 mmHg 41%
15:00 +29°C° 0 mm 6 mps 752 mmHg 47%
16:00 +28°C° 0 mm 6 mps 752 mmHg 52%
17:00 +26°C° 0 mm 6 mps 751 mmHg 58%
18:00 +25°C° 0 mm 5 mps 752 mmHg 63%
19:00 +22°C° 0 mm 5 mps 752 mmHg 69%
20:00 +21°C° 0 mm 4 mps 752 mmHg 75%
21:00 +21°C° 0 mm 4 mps 753 mmHg 76%
22:00 +20°C° 0 mm 4 mps 753 mmHg 78%
23:00 +20°C° 0 mm 4 mps 753 mmHg 80%

Mañana, 15 Mayo, Sábado

Tiempo Temperatura Precipitaciones Viento Presión Humedad
00:00 +20°C° 0 mm 4 mps 753 mmHg 80%
01:00 +19°C° 0 mm 3 mps 753 mmHg 81%
02:00 +19°C° 0 mm 3 mps 753 mmHg 82%
03:00 +19°C° 0 mm 3 mps 753 mmHg 83%
04:00 +19°C° 0 mm 3 mps 753 mmHg 84%
05:00 +18°C° 0 mm 3 mps 753 mmHg 84%
06:00 +19°C° 0 mm 3 mps 754 mmHg 82%
07:00 +19°C° 0 mm 3 mps 754 mmHg 80%
08:00 +20°C° 0 mm 3 mps 755 mmHg 78%
09:00 +19°C° 0.4 mm 4 mps 755 mmHg 78%
10:00 +19°C° 0.4 mm 5 mps 756 mmHg 77%
11:00 +19°C° 0.4 mm 6 mps 756 mmHg 77%
12:00 +17°C° 0.3 mm 6 mps 757 mmHg 73%
13:00 +16°C° 0.3 mm 6 mps 757 mmHg 70%
14:00 +15°C° 0.3 mm 6 mps 757 mmHg 66%
15:00 +15°C° 0.1 mm 6 mps 757 mmHg 66%
16:00 +15°C° 0.1 mm 5 mps 758 mmHg 67%
17:00 +15°C° 0.1 mm 5 mps 758 mmHg 68%
18:00 +14°C° 0 mm 5 mps 759 mmHg 70%
19:00 +14°C° 0 mm 4 mps 759 mmHg 71%
20:00 +13°C° 0 mm 4 mps 760 mmHg 73%
21:00 +13°C° 0 mm 4 mps 760 mmHg 75%
22:00 +12°C° 0 mm 5 mps 760 mmHg 76%
23:00 +12°C° 0 mm 5 mps 760 mmHg 78%

Pasado mañana, 16 Mayo, Domingo

Tiempo Temperatura Precipitaciones Viento Presión Humedad
00:00 +12°C° 0.3 mm 5 mps 760 mmHg 80%
01:00 +12°C° 0.3 mm 5 mps 759 mmHg 83%
02:00 +11°C° 0.3 mm 4 mps 759 mmHg 85%
03:00 +12°C° 0.1 mm 4 mps 759 mmHg 83%
04:00 +12°C° 0.1 mm 3 mps 759 mmHg 82%
05:00 +12°C° 0.1 mm 3 mps 759 mmHg 80%
06:00 +13°C° 0 mm 3 mps 759 mmHg 75%
07:00 +14°C° 0 mm 3 mps 759 mmHg 69%
08:00 +14°C° 0 mm 4 mps 759 mmHg 64%
09:00 +18°C° 0 mm 4 mps 759 mmHg 51%
10:00 +21°C° 0 mm 4 mps 758 mmHg 38%
11:00 +25°C° 0 mm 4 mps 758 mmHg 24%
12:00 +26°C° 0 mm 4 mps 757 mmHg 21%
13:00 +28°C° 0 mm 3 mps 757 mmHg 18%
14:00 +29°C° 0 mm 3 mps 756 mmHg 15%
15:00 +29°C° 0 mm 3 mps 756 mmHg 15%
16:00 +29°C° 0 mm 2 mps 755 mmHg 15%
17:00 +29°C° 0 mm 2 mps 755 mmHg 15%
18:00 +27°C° 0 mm 2 mps 755 mmHg 18%
19:00 +25°C° 0 mm 2 mps 755 mmHg 22%
20:00 +23°C° 0 mm 2 mps 756 mmHg 26%
21:00 +21°C° 0 mm 2 mps 756 mmHg 30%
22:00 +20°C° 0 mm 3 mps 756 mmHg 35%
23:00 +19°C° 0 mm 3 mps 756 mmHg 39%

17 Mayo, Lunes

Tiempo Temperatura Precipitaciones Viento Presión Humedad
00:00 +18°C° 0 mm 2 mps 756 mmHg 38%
01:00 +18°C° 0 mm 2 mps 755 mmHg 37%
02:00 +18°C° 0 mm 2 mps 755 mmHg 36%
03:00 +17°C° 0 mm 2 mps 755 mmHg 35%
04:00 +18°C° 0 mm 1 mps 755 mmHg 34%
05:00 +16°C° 0 mm 1 mps 755 mmHg 33%
06:00 +19°C° 0 mm 2 mps 755 mmHg 28%
07:00 +21°C° 0 mm 2 mps 755 mmHg 23%
08:00 +25°C° 0 mm 3 mps 755 mmHg 18%
09:00 +28°C° 0 mm 3 mps 755 mmHg 15%
10:00 +30°C° 0 mm 4 mps 755 mmHg 12%
11:00 +34°C° 0 mm 4 mps 755 mmHg 9%
12:00 +34°C° 0 mm 4 mps 754 mmHg 9%
13:00 +35°C° 0 mm 4 mps 753 mmHg 8%
14:00 +36°C° 0 mm 5 mps 752 mmHg 8%
15:00 +35°C° 0 mm 5 mps 752 mmHg 8%
16:00 +35°C° 0 mm 4 mps 752 mmHg 8%
17:00 +35°C° 0 mm 4 mps 752 mmHg 8%
18:00 +33°C° 0 mm 4 mps 752 mmHg 10%
19:00 +29°C° 0 mm 4 mps 752 mmHg 12%
20:00 +27°C° 0 mm 4 mps 752 mmHg 13%
21:00 +26°C° 0 mm 4 mps 752 mmHg 15%
22:00 +25°C° 0 mm 4 mps 752 mmHg 17%
23:00 +23°C° 0 mm 4 mps 753 mmHg 18%

18 Mayo, Martes

Tiempo Temperatura Precipitaciones Viento Presión Humedad
00:00 +22°C° 0 mm 4 mps 753 mmHg 20%
01:00 +21°C° 0 mm 4 mps 752 mmHg 22%
02:00 +20°C° 0 mm 4 mps 752 mmHg 24%
03:00 +20°C° 0 mm 3 mps 752 mmHg 25%
04:00 +19°C° 0 mm 3 mps 752 mmHg 26%
05:00 +19°C° 0 mm 2 mps 753 mmHg 28%
06:00 +21°C° 0 mm 3 mps 753 mmHg 25%
07:00 +24°C° 0 mm 3 mps 753 mmHg 23%
08:00 +27°C° 0 mm 3 mps 753 mmHg 20%
09:00 +30°C° 0 mm 3 mps 753 mmHg 17%
10:00 +33°C° 0 mm 4 mps 753 mmHg 14%
11:00 +36°C° 0 mm 5 mps 753 mmHg 11%
12:00 +37°C° 0 mm 5 mps 752 mmHg 10%
13:00 +39°C° 0 mm 5 mps 751 mmHg 8%
14:00 +40°C° 0 mm 5 mps 751 mmHg 7%
15:00 +40°C° 0 mm 6 mps 751 mmHg 7%
16:00 +40°C° 0 mm 6 mps 750 mmHg 7%
17:00 +40°C° 0 mm 6 mps 750 mmHg 7%
18:00 +36°C° 0 mm 6 mps 750 mmHg 9%
19:00 +33°C° 0 mm 5 mps 751 mmHg 12%
20:00 +29°C° 0 mm 4 mps 751 mmHg 14%
21:00 +29°C° 0 mm 5 mps 752 mmHg 16%
22:00 +29°C° 0 mm 6 mps 752 mmHg 17%
23:00 +29°C° 0 mm 7 mps 753 mmHg 19%

19 Mayo, Miércoles

Tiempo Temperatura Precipitaciones Viento Presión Humedad
00:00 +28°C° 0 mm 7 mps 753 mmHg 23%
01:00 +27°C° 0 mm 6 mps 753 mmHg 27%
02:00 +26°C° 0 mm 6 mps 753 mmHg 31%
03:00 +25°C° 0 mm 5 mps 753 mmHg 36%
04:00 +22°C° 0 mm 4 mps 753 mmHg 40%
05:00 +21°C° 0 mm 4 mps 754 mmHg 44%
06:00 +23°C° 0 mm 4 mps 754 mmHg 41%
07:00 +26°C° 0 mm 5 mps 754 mmHg 38%
08:00 +28°C° 0 mm 5 mps 755 mmHg 35%
09:00 +30°C° 0 mm 5 mps 754 mmHg 31%
10:00 +33°C° 0 mm 5 mps 754 mmHg 26%
11:00 +35°C° 0 mm 5 mps 754 mmHg 22%
12:00 +36°C° 0 mm 6 mps 753 mmHg 19%
13:00 +38°C° 0 mm 6 mps 753 mmHg 16%
14:00 +39°C° 0 mm 7 mps 752 mmHg 13%
15:00 +38°C° 0 mm 7 mps 752 mmHg 14%
16:00 +36°C° 0 mm 7 mps 752 mmHg 15%
17:00 +35°C° 0 mm 7 mps 752 mmHg 16%
18:00 +33°C° 0 mm 6 mps 752 mmHg 21%
19:00 +29°C° 0 mm 5 mps 753 mmHg 25%
20:00 +27°C° 0 mm 4 mps 753 mmHg 30%
21:00 +26°C° 0 mm 3 mps 753 mmHg 32%
22:00 +25°C° 0 mm 3 mps 754 mmHg 34%
23:00 +24°C° 0 mm 3 mps 754 mmHg 37%
Mostrar más

Necesitamos Su Consentimiento

Meteoprog y nuestros Proveedores de Servicios pueden almacenar y acceder a sus datos personales como cookies, identificadores de dispositivo u otras tecnologías similares de su dispositivo y procesar dichos datos para personalizar contenido y anuncios, además de ofrecer funciones de redes sociales y analizar el tráfico.

  • Almacenar y/o acceder a información en su dispositivo

    Se puede almacenar o acceder a cookies, identificadores de dispositivo u otra información de su dispositivo para los fines anteriormente indicados.

  • Anuncios y contenido personalizados, medición de anuncios y contenido, percepciones del público, y desarrollo de productos

    Los anuncios y el contenido pueden personalizarse en base a su perfil. Se pueden añadir más datos para personalizar mejor los anuncios y contenidos. Se puede medir el rendimiento de los anuncios y contenidos. Se puede obtener la percepción sobre el público que ha visto los anuncios y contenidos. Dichos datos pueden usarse para desarrollar o mejorar la experiencia del usuario, sistemas y software.

Al hacer clic en ‘Estoy De Acuerdo’ usted permitirá el uso de las cookies, identificadores de dispositivo, balizas web u otras tecnologías similares indicadas. Su configuración puede cambiarse desde el navegador de su dispositivo.

Para ciertos fines, los intereses legítimos pueden ser considerados por encima del consentimiento. Puede leer más sobre ello en nuestra Política de Privacidad y Cookies.